Regional Weather Roundup
Issued by NWS

Home | Current Version | Previous Version | Graphics & Text | Print | Product List | Glossary Off
Versions: 1 2 3 4 5 6 7 8 9 10 11 12 13 14 15 16 17 18 19 20 21 22 23 24 25 26 27 28 29 30 31 32 33 34 35 36 37 38 39 40 41 42 43 44 45 46 47 48 49 50

000
ASUS43 KLSX 310210
RWRMO

WEATHER SUMMARY FOR MISSOURI
NATIONAL WEATHER SERVICE SPRINGFIELD MO
900 PM CDT SUN AUG 30 2015

NOTE: "FAIR" INDICATES FEW OR NO CLOUDS BELOW 12,000 FEET WITH NO
       SIGNIFICANT WEATHER AND/OR OBSTRUCTIONS TO VISIBILITY.
       CURRENT SKY AND/OR WEATHER CONDITIONS ARE NOT AVAILABLE FOR
       CHILLICOTHE AND FARMINGTON.

MOZ001>031-035>038-043-044-053-054-310300-
...NORTHERN AND WESTERN MISSOURI...

CITY           SKY/WX    TMP DP  RH WIND       PRES   REMARKS
KANSAS CTY INT CLEAR     78  69  73 SE7       29.97R
KANSAS C DTWN  CLEAR     80  70  71 SE6       29.95R
LEE`S SUMMIT   PTCLDY    78  70  76 SE3       29.98R
ST JOSEPH      PTCLDY    76  70  82 E5        29.96R
CHILLICOTHE      N/A     75  71  87 CALM      29.99R
KIRKSVILLE     CLEAR     73  67  81 E3        30.01R

$$
MOZ066>068-077>081-088>096-101>105-310300-
...SOUTHWEST MISSOURI...

CITY           SKY/WX    TMP DP  RH WIND       PRES   REMARKS
SPRINGFIELD    CLEAR     75  68  78 SE6       30.00R
JOPLIN         CLEAR     78  72  81 SE7       29.97R

$$
MOZ032>034-039>042-045>050-055>058-069>072-310300-
...CENTRAL MISSOURI...

CITY           SKY/WX    TMP DP  RH WIND       PRES   REMARKS
COLUMBIA       PTCLDY    76  72  87 E6        30.00R
JEFFERSON CITY PTCLDY    78  71  79 SE5       29.98R
ROLLA          CLOUDY    76  70  82 SE6       30.01R
SEDALIA        PTCLDY    78  71  79 E6        29.99R
WHITEMAN AFB   CLEAR     77  72  84 E3        29.97R
WARRENSBURG    PTCLDY    75  70  83 E5        29.97R
OSAGE BEACH    PTCLDY    79  70  73 SE5       30.01R

$$
MOZ051-052-059>065-310300-
...EAST CENTRAL MISSOURI...

CITY           SKY/WX    TMP DP  RH WIND       PRES   REMARKS
ST LOUIS INTL  MOCLDY    81  69  67 SE7       30.01R
SPIRIT OF STL  PTCLDY    75  74  96 CALM      29.99R
ST CHARLES     CLEAR     76  72  87 NE3       29.99R

$$
MOZ072>076-082>087-097>100-106>115-310300-
...SOUTH CENTRAL AND SOUTHEAST MISSOURI...

CITY           SKY/WX    TMP DP  RH WIND       PRES   REMARKS
CAPE GIRARDEAU CLEAR     76  71  85 SE10      30.02R
FARMINGTON     MOCLDY    73  73 100 CALM      30.05S
POPLAR BLUFF   PTCLDY    77  71  82 SE8       30.01R
WEST PLAINS    PTCLDY    76  69  79 CALM      30.05R

$$



USA.gov is the U.S. government's official web portal to all federal, state and local government web resources and services.